Dansville, NY

11:05 AM EDT on October 16, 2019 (GMT -0400)
Dansville Municipal

Weather History for KDSV - September, 2019

Change the Weather History Date:

Sunday, September 22, 2019

  Actual Average Record
Temperature  
Mean Temperature 74 °F -  
Max Temperature 88 °F 70 °F 90 °F (1965)
Min Temperature 61 °F 48 °F 31 °F (1973)
Cooling Degree Days 9    
Growing Degree Days 24 (Base 50)    
Moisture  
Dew Point 63 °F    
Average Humidity 73    
Maximum Humidity 90    
Minimum Humidity 40    
Precipitation  
Precipitation 0.00 in - - ()
Sea Level Pressure  
Sea Level Pressure 30.07 in    
Wind  
Wind Speed 8 mph (SSE)    
Max Wind Speed 12 mph    
Max Gust Speed -    
Visibility 10 miles    
Events      
Averages and records for this station are not official NWS values.
T = Trace of Precipitation, MM = Missing Value Source: NWS Daily Summary

Daily Weather History Graph

Daily Weather History Graph

Search for Another Location

Airport or City:

Astronomy

Sep. 22, 2019 Rise Set
Actual Time 6:57 AM EDT 7:08 PM EDT
Civil Twilight 6:29 AM EDT 7:36 PM EDT
Nautical Twilight 5:56 AM EDT 8:09 PM EDT
Astronomical Twilight 5:23 AM EDT 8:43 PM EDT
Moon No Moon Rise 3:10 PM EDT (9/22)
Length of Visible Light 13h 06m
Length of Day
12h 10m
Last Quarter, 44% of the Moon is Illuminated
Sep 22
Last Quarter
Sep 28
New
Oct 5
First Quarter
Oct 13
Full
Oct 21
Last Quarter

Hourly Weather History & Observations

Time (EDT) Temp. Heat Index Dew Point Humidity Pressure Visibility Wind Dir Wind Speed Gust Speed Precip Events Conditions
12:54 AM 64.0 °F - 60.1 °F 87% 30.18 in 10.0 mi SE 9.2 mph - N/A   Clear
1:54 AM 63.0 °F - 59.0 °F 87% 30.17 in 10.0 mi ESE 9.2 mph - N/A   Clear
2:54 AM 62.1 °F - 59.0 °F 90% 30.16 in 10.0 mi SE 8.1 mph - N/A   Clear
3:54 AM 62.1 °F - 59.0 °F 90% 30.15 in 10.0 mi SE 6.9 mph - N/A   Partly Cloudy
4:54 AM 61.0 °F - 57.9 °F 90% 30.14 in 10.0 mi SE 9.2 mph - N/A   Clear
5:54 AM 62.1 °F - 59.0 °F 90% 30.15 in 10.0 mi SSE 8.1 mph - N/A   Clear
6:54 AM 62.1 °F - 59.0 °F 90% 30.15 in 10.0 mi SSE 9.2 mph - N/A   Clear
7:54 AM 63.0 °F - 60.1 °F 90% 30.15 in 10.0 mi SE 10.4 mph - N/A   Clear
8:54 AM 69.1 °F - 63.0 °F 81% 30.14 in 10.0 mi SE 11.5 mph - N/A   Clear
9:54 AM 73.0 °F - 66.0 °F 79% 30.13 in 10.0 mi SE 10.4 mph - N/A   Clear
10:54 AM 79.0 °F - 66.9 °F 66% 30.11 in 10.0 mi Variable 5.8 mph - N/A   Clear
11:54 AM 84.0 °F 86.3 °F 66.0 °F 55% 30.09 in 10.0 mi Variable 6.9 mph - N/A   Clear
12:54 PM 84.0 °F 86.3 °F 66.0 °F 55% 30.06 in 10.0 mi Variable 5.8 mph - N/A   Partly Cloudy
1:54 PM 84.9 °F 86.1 °F 64.0 °F 49% 30.04 in 10.0 mi Variable 5.8 mph - N/A   Mostly Cloudy
2:54 PM 87.1 °F 87.8 °F 63.0 °F 44% 30.02 in 10.0 mi Variable 6.9 mph - N/A   Clear
3:54 PM 87.1 °F 87.5 °F 62.1 °F 43% 30.00 in 10.0 mi Variable 5.8 mph - N/A   Partly Cloudy
4:54 PM 87.1 °F 86.7 °F 60.1 °F 40% 29.99 in 10.0 mi SSW 5.8 mph - N/A   Clear
5:54 PM 84.9 °F 85.4 °F 62.1 °F 46% 29.97 in 10.0 mi SSW 4.6 mph - N/A   Clear
6:54 PM 79.0 °F - 64.9 °F 62% 29.97 in 10.0 mi South 3.5 mph - N/A   Clear
7:54 PM 73.9 °F - 66.0 °F 76% 29.97 in 10.0 mi South 5.8 mph - N/A   Clear
8:54 PM 71.1 °F - 64.9 °F 81% 29.97 in 10.0 mi South 3.5 mph - N/A   Clear
9:54 PM 69.1 °F - 64.0 °F 84% 29.96 in 10.0 mi Calm Calm - N/A   Clear
10:54 PM 68.0 °F - 64.0 °F 87% 29.95 in 9.0 mi SSE 6.9 mph - N/A   Clear
11:54 PM 66.9 °F - 64.0 °F 90% 29.94 in 10.0 mi South 4.6 mph - N/A   Clear